Terminal Aerodrome Forecast
Issued by NWS Boise, ID

Home | Current Version | Previous Version | Text Only | Print | Product List | Glossary On
Versions: 1 2 3 4 5 6 7 8 9 10 11 12 13 14 15 16 17 18 19 20 21 22 23
000
FTUS45 KBOI 221753
TAFBNO
TAF
KBNO 221753Z 2218/2318 05008KT P6SM BKN200
     FM230100 09005KT P6SM SCT090
     FM230500 24006KT P6SM SCT150
      AMD NOT SKED=

USA.gov is the U.S. government's official web portal to all federal, state and local government web resources and services.